Location: Unspecified
(0.0000°N, 0.0000°E)
Time: 08:10:48
(UTC+00:00)

STARLINK-2743 - Pass Details

Date: 12 June 2021
Orbit: 348 x 351 km, 53.0° (Epoch: 20 June)

Event Time Altitude Azimuth Distance (km) Brightness Sun altitude
Exits shadow 04:34:16 - 153° (SSE) 1,412 5.7 -19.6°
Reaches altitude 10° 04:35:01 10° 139° (SE) 1,302 5.7 -19.4°
Maximum altitude 04:35:44 11° 125° (SE) 1,263 5.8 -19.3°
Drops below altitude 10° 04:36:28 10° 110° (ESE) 1,300 6.1 -19.1°
Sets 04:39:46 0° 69° (ENE) 2,137 8.4 -18.4°
